Regional Weather Roundup
Issued by NWS

Home | Current Version | Previous Version | Text Only | Print | Product List | Glossary On
Versions: 1 2 3 4 5 6 7 8 9 10 11 12 13 14 15 16 17 18 19 20 21 22 23 24 25 26 27 28 29 30 31 32 33 34 35 36 37 38 39 40 41 42 43 44 45 46 47 48 49 50
000
ASPQ40 PGUM 260212
RWRPQ
WEATHER ROUNDUP FOR THE MARIANAS AND MICRONESIA
NATIONAL WEATHER SERVICE TIYAN GU
1200 PM CHST SAT JUL 26 2014

GUZ001>004-260300-
MARIANA ISLANDS-

CITY           SKY/WX    TMP DP  RH WIND       PRES   REMARKS
GUAM AIRPORT   RAIN      77  75  94 CALM      29.88F
ANDERSEN AFB   HVY RAIN  75  75 100 SW16      29.88S FOG
ROTA AIRPORT   CLOUDY    81  77  89 S14       29.87S
TINIAN AP      PTSUNNY   79  77  94 E7        29.81F
SAIPAN AP      MOSUNNY   81  77  89 SE7       29.83F

$$

PMZ161-260300-
REPUBLIC OF PALAU-

CITY           SKY/WX    TMP DP  RH WIND       PRES   REMARKS
KOROR AP       PTSUNNY   84  81  89 SW21G28   29.77S HX  98
KOROR WSO      CLOUDY    82  75  78 W14G28    29.77R

$$

PMZ171>174-260300-
FEDERATED STATES OF MICRONESIA-

CITY           SKY/WX    TMP DP  RH WIND       PRES   REMARKS
YAP AIRPORT    CLOUDY    82  77  83 SW12G21   29.78R HX  91
CHUUK AP       CLOUDY    82  79  89 W14       29.85F HX  93
POHNPEI AP     LGT RAIN  75  75 100 W13       29.84F
POHNPEI WSO    LGT RAIN  75  73  94 SW6       29.88F
KOSRAE AP      NOT AVBL

$$

PMZ181-260300-
REPUBLIC OF THE MARSHALL ISLANDS-

CITY           SKY/WX    TMP DP  RH WIND       PRES   REMARKS
KWAJALEIN AP   MOSUNNY   82  75  78 NW5       29.80F
MAJURO AP      NOT AVBL
MAJURO WSO     MOSUNNY   86  77  74 SW7       29.81F HX  97

$$



USA.gov is the U.S. government's official web portal to all federal, state and local government web resources and services.